Satellite: ASTRA 1B
Catalog number: 21139
Epoch time:      102354.00000000
Element set:     155 
Inclination:        0.0122 deg
RA of node:       319.8851 deg
Eccentricity:    0.0002995
Arg of perigee:    65.1991 deg
Mean anomaly:      82.5138 deg
Mean motion:    1.00273184 rev/day
Decay rate:    1.4299E-006 rev/day^2
Epoch rev:            3158
Checksum:              248

Satellite: METEOSAT 5 (MO
Catalog number: 21140
Epoch time:      102360.69227946
Element set:     652 
Inclination:        5.5102 deg
RA of node:        70.2976 deg
Eccentricity:    0.0000972
Arg of perigee:   165.1071 deg
Mean anomaly:     171.8057 deg
Mean motion:    1.00276847 rev/day
Decay rate:    2.6999E-007 rev/day^2
Epoch rev:            4550
Checksum:              297

Satellite: NOAA 12
Catalog number: 21263
Epoch time:      102361.89466954
Element set:     912 
Inclination:       98.6208 deg
RA of node:       347.4342 deg
Eccentricity:    0.0012587
Arg of perigee:   171.5093 deg
Mean anomaly:     188.6301 deg
Mean motion:   14.25042395 rev/day
Decay rate:    7.3100E-006 rev/day^2
Epoch rev:           60371
Checksum:              305

Satellite: OSCAR 22 (UoSA
Catalog number: 21575
Epoch time:      102361.87604028
Element set:     686 
Inclination:       98.1366 deg
RA of node:       351.6741 deg
Eccentricity:    0.0006652
Arg of perigee:   298.0412 deg
Mean anomaly:      62.0104 deg
Mean motion:   14.39115002 rev/day
Decay rate:    7.5500E-006 rev/day^2
Epoch rev:           60070
Checksum:              286

Satellite: METEOR 3-5
Catalog number: 21655
Epoch time:      102359.97476568
Element set:     560 
Inclination:       82.5572 deg
RA of node:        77.4391 deg
Eccentricity:    0.0013426
Arg of perigee:   340.4525 deg
Mean anomaly:      19.6081 deg
Mean motion:   13.16976442 rev/day
Decay rate:    5.1000E-007 rev/day^2
Epoch rev:           54629
Checksum:              324

Satellite: UARS
Catalog number: 21701
Epoch time:      102361.34639491
Element set:     785 
Inclination:       56.9817 deg
RA of node:       247.4505 deg
Eccentricity:    0.0006756
Arg of perigee:   106.6718 deg
Mean anomaly:     253.5056 deg
Mean motion:   15.02739782 rev/day
Decay rate:    2.1129E-005 rev/day^2
Epoch rev:           61771
Checksum:              426

Satellite: EUTELSAT 2-F3
Catalog number: 21803
Epoch time:      102361.86509260
Element set:     502 
Inclination:        2.4675 deg
RA of node:        89.6382 deg
Eccentricity:    0.0002487
Arg of perigee:   210.0751 deg
Mean anomaly:     129.3047 deg
Mean motion:    1.00268089 rev/day
Decay rate:    1.3699E-006 rev/day^2
Epoch rev:            3646
Checksum:              294

Satellite: INMARSAT 2-F3
Catalog number: 21814
Epoch time:      102361.37938358
Element set:     589 
Inclination:        1.7114 deg
RA of node:        57.6935 deg
Eccentricity:    0.0002423
Arg of perigee:   208.3405 deg
Mean anomaly:     184.2229 deg
Mean motion:    1.00274014 rev/day
Decay rate:    1.2100E-006 rev/day^2
Epoch rev:            4036
Checksum:              263

Satellite: INMARSAT 2-F4
Catalog number: 21940
Epoch time:      102357.10755977
Element set:     559 
Inclination:        2.3705 deg
RA of node:        19.4226 deg
Eccentricity:    0.0001162
Arg of perigee:   237.3054 deg
Mean anomaly:     342.4959 deg
Mean motion:    1.00278479 rev/day
Decay rate:   -3.3900E-006 rev/day^2
Epoch rev:            3910
Checksum:              293

Satellite: EUTELSAT 2-F4
Catalog number: 22028
Epoch time:      102357.23565395
Element set:     309 
Inclination:        1.5749 deg
RA of node:        93.2309 deg
Eccentricity:    0.0005265
Arg of perigee:   186.9384 deg
Mean anomaly:     243.9160 deg
Mean motion:    1.00271395 rev/day
Decay rate:   -8.3999E-007 rev/day^2
Epoch rev:            3120
Checksum:              418

Satellite: OSCAR 23 (KITS
Catalog number: 22077
Epoch time:      102359.91384223
Element set:     183 
Inclination:       66.0871 deg
RA of node:       240.1854 deg
Eccentricity:    0.0014583
Arg of perigee:   286.0999 deg
Mean anomaly:      73.8414 deg
Mean motion:   12.86406604 rev/day
Decay rate:   -3.7000E-007 rev/day^2
Epoch rev:           48727
Checksum:              321

Satellite: ASTRA 1C
Catalog number: 22653
Epoch time:      102354.00000000
Element set:     781 
Inclination:        0.0122 deg
RA of node:       319.8851 deg
Eccentricity:    0.0002995
Arg of perigee:    65.1991 deg
Mean anomaly:      82.5058 deg
Mean motion:    1.00273184 rev/day
Decay rate:    1.4299E-006 rev/day^2
Epoch rev:            3028
Checksum:              252

Satellite: METEOR 2-21
Catalog number: 22782
Epoch time:      102361.23508284
Element set:     476 
Inclination:       82.5496 deg
RA of node:       257.1963 deg
Eccentricity:    0.0023323
Arg of perigee:   132.9465 deg
Mean anomaly:     227.3656 deg
Mean motion:   13.83525699 rev/day
Decay rate:    2.0800E-006 rev/day^2
Epoch rev:           47071
Checksum:              323

Satellite: KITSAT B
Catalog number: 22825
Epoch time:      102361.88553886
Element set:     448 
Inclination:       98.2799 deg
RA of node:        29.2568 deg
Eccentricity:    0.0009477
Arg of perigee:    58.2379 deg
Mean anomaly:     301.9725 deg
Mean motion:   14.28923116 rev/day
Decay rate:    3.5800E-006 rev/day^2
Epoch rev:           48235
Checksum:              459

Satellite: POSAT 1
Catalog number: 22826
Epoch time:      102360.17369048
Element set:     291 
Inclination:       98.2813 deg
RA of node:        28.7208 deg
Eccentricity:    0.0009960
Arg of perigee:    60.4909 deg
Mean anomaly:     299.7259 deg
Mean motion:   14.29143001 rev/day
Decay rate:    4.3199E-006 rev/day^2
Epoch rev:           48215
Checksum:              437

Satellite: ITAMSAT
Catalog number: 22828
Epoch time:      102361.63697391
Element set:     387 
Inclination:       98.2748 deg
RA of node:        30.3732 deg
Eccentricity:    0.0010840
Arg of perigee:    37.1864 deg
Mean anomaly:     323.0065 deg
Mean motion:   14.29489336 rev/day
Decay rate:    3.4600E-006 rev/day^2
Epoch rev:           45056
Checksum:              309

Satellite: EYESAT A
Catalog number: 22829
Epoch time:      102361.65560234
Element set:     411 
Inclination:       98.2792 deg
RA of node:        30.9714 deg
Eccentricity:    0.0010676
Arg of perigee:    37.1906 deg
Mean anomaly:     323.0014 deg
Mean motion:   14.29739129 rev/day
Decay rate:    4.9499E-006 rev/day^2
Epoch rev:           48249
Checksum:              315

Satellite: METEOSAT 6
Catalog number: 22912
Epoch time:      102357.98751950
Element set:     610 
Inclination:        2.5267 deg
RA of node:        82.7660 deg
Eccentricity:    0.0018472
Arg of perigee:   258.2863 deg
Mean anomaly:     116.1471 deg
Mean motion:    1.00259034 rev/day
Decay rate:    7.3000E-007 rev/day^2
Epoch rev:            3173
Checksum:              281

Satellite: GOES 8
Catalog number: 23051
Epoch time:      102360.26373866
Element set:     534 
Inclination:        0.4828 deg
RA of node:       100.2918 deg
Eccentricity:    0.0002373
Arg of perigee:   159.6753 deg
Mean anomaly:     214.8309 deg
Mean motion:    1.00266681 rev/day
Decay rate:   -2.3899E-006 rev/day^2
Epoch rev:            3926
Checksum:              301

Satellite: ASTRA 1D
Catalog number: 23331
Epoch time:      102357.83004395
Element set:     795 
Inclination:        0.0592 deg
RA of node:       200.1467 deg
Eccentricity:    0.0003605
Arg of perigee:    30.1964 deg
Mean anomaly:     184.8974 deg
Mean motion:    1.00274439 rev/day
Decay rate:    1.5399E-006 rev/day^2
Epoch rev:            3030
Checksum:              382

Satellite: RADIO ROSTO
Catalog number: 23439
Epoch time:      102358.32889677
Element set:     670 
Inclination:       64.8111 deg
RA of node:       132.4240 deg
Eccentricity:    0.0148444
Arg of perigee:   126.1584 deg
Mean anomaly:     235.3183 deg
Mean motion:   11.27548420 rev/day
Decay rate:   -3.8999E-007 rev/day^2
Epoch rev:           32925
Checksum:              324

Satellite: NOAA 14
Catalog number: 23455
Epoch time:      102361.94346121
Element set:     466 
Inclination:       99.1890 deg
RA of node:        14.1257 deg
Eccentricity:    0.0009648
Arg of perigee:    21.4645 deg
Mean anomaly:     338.6929 deg
Mean motion:   14.13276416 rev/day
Decay rate:    3.6700E-006 rev/day^2
Epoch rev:           41204
Checksum:              304

Satellite: HIMAWARI 5 (GM
Catalog number: 23522
Epoch time:      102361.54124972
Element set:     26 
Inclination:        1.6260 deg
RA of node:        82.6525 deg
Eccentricity:    0.0001574
Arg of perigee:   105.7179 deg
Mean anomaly:     242.5039 deg
Mean motion:    1.00277988 rev/day
Decay rate:   -2.6899E-006 rev/day^2
Epoch rev:            2835
Checksum:              303

Satellite: HOT BIRD 1
Catalog number: 23537
Epoch time:      102350.98339209
Element set:     530 
Inclination:        0.0894 deg
RA of node:        72.1866 deg
Eccentricity:    0.0004167
Arg of perigee:   105.4513 deg
Mean anomaly:     274.8892 deg
Mean motion:    1.00271885 rev/day
Decay rate:    1.1199E-006 rev/day^2
Epoch rev:            2833
Checksum:              294

Satellite: GOES 9
Catalog number: 23581
Epoch time:      102354.75358751
Element set:     441 
Inclination:        0.5117 deg
RA of node:        95.2472 deg
Eccentricity:    0.0006996
Arg of perigee:   240.2116 deg
Mean anomaly:     278.5179 deg
Mean motion:    1.00272358 rev/day
Decay rate:   -5.8000E-007 rev/day^2
Epoch rev:            2776
Checksum:              300

